TimeEDT,TemperatureF,Dew PointF,Humidity,Sea Level PressureIn,VisibilityMPH,Wind Direction,Wind SpeedMPH,Gust SpeedMPH,PrecipitationIn,Events,Conditions,WindDirDegrees,DateUTC
12:15 AM,52.3,49.1,89,30.00,10.0,Calm,Calm,-,N/A,,Clear,0,2013-10-22 04:15:00
12:35 AM,52.2,49.1,89,30.00,10.0,Calm,Calm,-,N/A,,Clear,0,2013-10-22 04:35:00
12:55 AM,52.2,49.1,89,30.01,10.0,Calm,Calm,-,N/A,,Clear,0,2013-10-22 04:55:00
1:15 AM,52.2,49.1,89,30.00,10.0,Calm,Calm,-,N/A,,Clear,0,2013-10-22 05:15:00
1:35 AM,52.2,49.1,89,30.00,10.0,Calm,Calm,-,N/A,,Clear,0,2013-10-22 05:35:00
1:55 AM,52.2,49.1,89,30.00,10.0,Calm,Calm,-,N/A,,Clear,0,2013-10-22 05:55:00
2:15 AM,52.2,49.3,90,30.00,10.0,Calm,Calm,-,N/A,,Scattered Clouds,0,2013-10-22 06:15:00
2:35 AM,52.2,49.5,91,30.00,10.0,Calm,Calm,-,N/A,,Clear,0,2013-10-22 06:35:00
2:55 AM,50.9,48.2,90,29.99,7.0,Calm,Calm,-,N/A,,Clear,0,2013-10-22 06:55:00
3:15 AM,50.9,48.4,91,29.98,7.0,Calm,Calm,-,N/A,,Clear,0,2013-10-22 07:15:00
3:35 AM,50.5,48.2,92,29.99,7.0,Calm,Calm,-,N/A,,Clear,0,2013-10-22 07:35:00
3:55 AM,50.9,48.4,91,29.98,10.0,Calm,Calm,-,N/A,,Scattered Clouds,0,2013-10-22 07:55:00
4:15 AM,50.9,48.4,91,29.98,7.0,Calm,Calm,-,N/A,,Scattered Clouds,0,2013-10-22 08:15:00
4:35 AM,51.1,48.6,91,29.97,7.0,Calm,Calm,-,N/A,,Scattered Clouds,0,2013-10-22 08:35:00
4:55 AM,52.2,49.6,91,29.97,7.0,Calm,Calm,-,N/A,,Scattered Clouds,0,2013-10-22 08:55:00
5:15 AM,52.2,49.3,90,29.97,10.0,Calm,Calm,-,N/A,,Clear,0,2013-10-22 09:15:00
5:35 AM,52.2,49.5,91,29.97,7.0,Calm,Calm,-,N/A,,Scattered Clouds,0,2013-10-22 09:35:00
5:55 AM,52.2,49.5,91,29.96,7.0,Calm,Calm,-,N/A,,Scattered Clouds,0,2013-10-22 09:55:00
6:15 AM,52.2,49.5,91,29.96,7.0,Calm,Calm,-,N/A,,Scattered Clouds,0,2013-10-22 10:15:00
6:35 AM,52.5,49.5,89,29.95,7.0,Calm,Calm,-,N/A,,Mostly Cloudy,0,2013-10-22 10:35:00
6:55 AM,52.2,49.5,91,29.95,7.0,Calm,Calm,-,N/A,,Mostly Cloudy,0,2013-10-22 10:55:00
7:15 AM,52.2,49.5,91,29.95,7.0,Calm,Calm,-,N/A,,Overcast,0,2013-10-22 11:15:00
7:35 AM,52.2,49.5,91,29.94,7.0,Calm,Calm,-,N/A,Rain,Light Rain,0,2013-10-22 11:35:00
7:55 AM,52.5,49.8,91,29.94,7.0,Calm,Calm,-,N/A,,Overcast,0,2013-10-22 11:55:00
8:15 AM,52.2,49.6,91,29.95,5.0,Calm,Calm,-,N/A,Rain,Light Rain,0,2013-10-22 12:15:00
8:35 AM,52.5,50.0,91,29.95,5.0,Calm,Calm,-,N/A,Rain,Light Rain,0,2013-10-22 12:35:00
8:55 AM,54.3,51.4,90,29.95,7.0,Calm,Calm,-,N/A,Rain,Light Rain,0,2013-10-22 12:55:00
9:15 AM,55.2,51.4,87,29.95,10.0,Calm,Calm,-,N/A,,Overcast,0,2013-10-22 13:15:00
9:35 AM,56.1,51.8,85,29.94,10.0,Calm,Calm,-,N/A,,Overcast,0,2013-10-22 13:35:00
9:55 AM,57.2,52.2,83,29.94,10.0,Calm,Calm,-,N/A,,Overcast,0,2013-10-22 13:55:00
10:15 AM,59.5,53.2,80,29.93,10.0,NW,3.5,-,N/A,,Scattered Clouds,310,2013-10-22 14:15:00
10:35 AM,61.0,53.1,75,29.94,10.0,Calm,Calm,-,N/A,,Scattered Clouds,0,2013-10-22 14:35:00
10:55 AM,61.7,52.2,71,29.94,10.0,Calm,Calm,-,N/A,,Scattered Clouds,0,2013-10-22 14:55:00
11:15 AM,63.3,51.3,65,29.93,10.0,West,3.5,-,N/A,,Mostly Cloudy,280,2013-10-22 15:15:00
11:35 AM,64.0,47.7,55,29.93,10.0,WNW,3.5,-,N/A,,Scattered Clouds,300,2013-10-22 15:35:00
11:55 AM,66.7,48.0,51,29.92,10.0,West,6.9,-,N/A,,Clear,280,2013-10-22 15:55:00
12:15 PM,67.1,46.4,47,29.92,10.0,NW,8.1,-,N/A,,Clear,310,2013-10-22 16:15:00
12:35 PM,68.4,45.9,44,29.92,10.0,West,6.9,-,N/A,,Scattered Clouds,280,2013-10-22 16:35:00
12:55 PM,67.8,46.2,46,29.91,10.0,WNW,3.5,-,N/A,,Scattered Clouds,290,2013-10-22 16:55:00
1:15 PM,66.9,46.6,48,29.90,10.0,West,4.6,-,N/A,,Scattered Clouds,260,2013-10-22 17:15:00
1:35 PM,67.1,46.6,48,29.88,10.0,West,3.5,-,N/A,,Scattered Clouds,270,2013-10-22 17:35:00
1:55 PM,68.4,46.8,46,29.87,10.0,SW,5.8,-,N/A,,Mostly Cloudy,220,2013-10-22 17:55:00
2:15 PM,68.9,45.5,43,29.86,10.0,WNW,8.1,-,N/A,,Scattered Clouds,290,2013-10-22 18:15:00
2:35 PM,71.1,45.5,40,29.85,10.0,NW,6.9,-,N/A,,Scattered Clouds,310,2013-10-22 18:35:00
2:55 PM,69.8,45.0,41,29.85,10.0,West,4.6,-,N/A,,Mostly Cloudy,280,2013-10-22 18:55:00
3:15 PM,69.3,45.1,42,29.85,10.0,NW,4.6,-,N/A,,Mostly Cloudy,310,2013-10-22 19:15:00
3:35 PM,69.6,46.0,43,29.85,10.0,West,3.5,-,N/A,,Mostly Cloudy,280,2013-10-22 19:35:00
3:55 PM,68.5,45.5,44,29.85,10.0,Calm,Calm,-,N/A,,Mostly Cloudy,0,2013-10-22 19:55:00
4:15 PM,68.0,46.2,46,29.85,10.0,Calm,Calm,-,N/A,,Mostly Cloudy,0,2013-10-22 20:15:00
4:35 PM,67.3,49.8,53,29.85,10.0,Calm,Calm,-,N/A,,Mostly Cloudy,0,2013-10-22 20:35:00
4:55 PM,66.7,51.3,57,29.85,10.0,Calm,Calm,-,N/A,,Scattered Clouds,0,2013-10-22 20:55:00
5:15 PM,66.6,52.9,61,29.84,10.0,SSE,5.8,-,N/A,,Scattered Clouds,150,2013-10-22 21:15:00
5:35 PM,65.5,53.8,66,29.83,10.0,SSE,5.8,-,N/A,,Scattered Clouds,150,2013-10-22 21:35:00
5:55 PM,65.1,54.0,67,29.84,10.0,SSE,3.5,-,N/A,,Mostly Cloudy,160,2013-10-22 21:55:00
6:15 PM,64.0,53.6,69,29.84,10.0,Calm,Calm,-,N/A,,Mostly Cloudy,0,2013-10-22 22:15:00
6:35 PM,63.0,53.8,72,29.84,10.0,Calm,Calm,-,N/A,,Scattered Clouds,0,2013-10-22 22:35:00
6:55 PM,62.1,54.1,75,29.84,10.0,Calm,Calm,-,N/A,,Scattered Clouds,0,2013-10-22 22:55:00
7:15 PM,60.8,54.0,78,29.84,10.0,Calm,Calm,-,N/A,,Scattered Clouds,0,2013-10-22 23:15:00
7:35 PM,60.4,53.8,79,29.84,10.0,Calm,Calm,-,N/A,,Scattered Clouds,0,2013-10-22 23:35:00
7:55 PM,61.0,53.8,77,29.85,10.0,Calm,Calm,-,N/A,,Mostly Cloudy,0,2013-10-22 23:55:00
8:15 PM,60.6,53.8,78,29.84,10.0,Calm,Calm,-,N/A,,Overcast,0,2013-10-23 00:15:00
8:35 PM,60.1,53.8,80,29.84,10.0,Calm,Calm,-,N/A,,Mostly Cloudy,0,2013-10-23 00:35:00
8:55 PM,59.9,53.8,80,29.84,10.0,Calm,Calm,-,N/A,,Scattered Clouds,0,2013-10-23 00:55:00
9:15 PM,57.7,52.9,84,29.84,10.0,Calm,Calm,-,N/A,,Scattered Clouds,0,2013-10-23 01:15:00
9:35 PM,56.7,52.3,85,29.84,10.0,Calm,Calm,-,N/A,,Scattered Clouds,0,2013-10-23 01:35:00
9:55 PM,55.9,52.3,88,29.83,10.0,Calm,Calm,-,N/A,,Scattered Clouds,0,2013-10-23 01:55:00
10:35 PM,55.0,51.6,88,29.82,10.0,Calm,Calm,-,N/A,,Mostly Cloudy,0,2013-10-23 02:35:00
11:15 PM,57.2,53.2,87,29.82,10.0,Calm,Calm,-,N/A,,Overcast,0,2013-10-23 03:15:00
11:35 PM,56.3,52.3,87,29.81,10.0,Calm,Calm,-,N/A,,Overcast,0,2013-10-23 03:35:00
11:55 PM,55.4,52.0,88,29.80,10.0,Calm,Calm,-,N/A,,Mostly Cloudy,0,2013-10-23 03:55:00